Regional Weather Roundup
Issued by NWS

Home | Current Version | Previous Version | Text Only | Print | Product List | Glossary On
Versions: 1 2 3 4 5 6 7 8 9 10 11 12 13 14 15 16 17 18 19 20 21 22 23 24 25 26 27 28 29 30 31 32 33 34 35 36 37 38 39 40 41 42 43 44 45 46 47 48 49 50
000
ASUS45 KBOI 030510
RWRID
WEATHER ROUNDUP FOR IDAHO
NATIONAL WEATHER SERVICE BOISE ID
1100 PM MDT TUE SEP 02 2014

NOTE: "FAIR" INDICATES FEW OR NO CLOUDS BELOW 12000 FEET
WITH NO SIGNIFICANT WEATHER AND/OR OBSTRUCTIONS TO VISIBILITY

IDZ012-014-030600-
SOUTHWEST IDAHO


CITY           SKY/WX    TMP DP  RH WIND       PRES   REMARKS
BOISE          CLEAR     74  30  19 SE9       29.67F
CALDWELL       CLEAR     66  43  42 N8        29.68R
MOUNTAIN HOME  CLEAR     67  42  40 E6        29.69S
$$

IDZ016-017-030600-
SOUTHCENTRAL IDAHO


CITY           SKY/WX    TMP DP  RH WIND       PRES   REMARKS
BURLEY         CLEAR     61  47  59 CALM      29.77F
JEROME         CLEAR     65  43  44 NE12      29.75F
TWIN FALLS     CLEAR     65  44  46 S13       29.74F
$$

IDZ019>023-030600-
SOUTHEAST IDAHO


CITY           SKY/WX    TMP DP  RH WIND       PRES   REMARKS
IDAHO FALLS    CLEAR     60  36  40 S8        29.84F
POCATELLO      CLEAR     63  41  44 E6        29.81F
REXBURG        CLEAR     65  31  28 S12       29.83F
$$

IDZ006-010-011-018-031-032-030600-
CENTRAL IDAHO MOUNTAINS


CITY           SKY/WX    TMP DP  RH WIND       PRES   REMARKS
MCCALL         CLEAR     55  35  47 CALM      29.79F
HAILEY         CLEAR     55  36  47 W8        29.88S
STANLEY          N/A     51  26  37 CALM      29.91F
SALMON         CLEAR     61  30  31 SE8       29.73F
CHALLIS        CLEAR     56  32  40 NW7       29.81F
$$

IDZ002-004-006-007-026-030600-
NORTHERN IDAHO


CITY           SKY/WX    TMP DP  RH WIND       PRES   REMARKS
LEWISTON       PTCLDY    73  40  30 W18G26    29.68R
LOWELL           N/A     62  52  69 NW5       29.70R
COEUR D`ALENE  PTCLDY    64  43  45 SW7       29.64F
MULLAN PASS    CLOUDY    50  34  54 VRB5      29.80F
$$


USA.gov is the U.S. government's official web portal to all federal, state and local government web resources and services.